Starlink 30238

operational
NORAD ID: 57296 Int'l Des: 2023-096 Owner: SPXS Country: US Constellation: starlink
LEOCIRCULAR

Starlink 30238について

説明を読み込み中...

リアルタイム位置

3D地球を読み込み中...

次回通過

高度履歴

Altitude vs Time

uPlot chart will show altitude changes over time

軌道要素

1 57296U 23096G 25260.48732453 .00057142 00000-0 25672-2 0 9993
2 57296 42.9982 69.8470 0021134 280.1276 79.7189 15.20159153121755
Epoch: Sep 17, 2025 • Age: 24 hours

現在のステータス

高度 519.3 km
速度 7.60 km/s
衛星直下点 40.29°N, 43.58°W
打ち上げ日 Jul 10, 2023
運用期間 2.1 years
タイプ internet

技術仕様

分類 Payload
質量 730.00 kg
乾燥質量 700.00 kg
総質量 730.00 kg
長さ 0.30 m
直径 4.10 m
スパン 29.00 m
形状 Box + pan
製造者 SPXS
バスタイプ Starlink V2M
フェーズステータス In Orbit
所有者/国 SPXS/US

大規模コンステレーション

Loading constellations...